Wind_Speed
11 11 11 11 10 9 8 6 6 6 6 5 4 4 4 4 4 3 3 3 3 3 3 2 1 0 1 1 1 2 3 4 4 5 5 5 5 6 6 6 7 6 7
10 10 10 10 10 9 8 7 6 6 6 6 5 4 3 2 2 2 2 2 2 1 1 1 1 2 2 2 3 3 3 3 3 3 4 5 5 5 6 6 7 7 8
9 9 9 9 9 9 9 8 7 6 5 5 5 5 4 3 2 2 2 1 1 1 2 2 2 3 3 3 3 4 4 4 4 4 4 5 5 5 6 6 7 7 7
10 9 8 8 8 8 8 8 7 6 6 5 6 6 5 4 3 3 2 2 2 2 3 3 3 4 4 4 4 4 4 5 5 6 6 6 6 6 8 8 7 7 7
9 9 8 7 7 8 7 7 6 6 6 5 5 5 5 5 4 3 3 3 3 4 5 5 5 5 5 5 5 6 6 6 7 7 7 7 8 8 8 8 8 8 8
8 9 8 7 6 6 6 6 6 6 5 5 5 5 5 5 5 4 4 4 5 6 6 6 6 6 6 6 6 6 6 7 7 8 8 9 9 9 9 9 9 9 9
9 8 8 7 6 6 6 5 5 5 6 6 5 5 5 6 6 6 6 6 7 7 7 7 7 7 7 7 7 7 8 8 9 9 10 10 10 11 11 11 11 11 11
10 8 8 8 7 6 6 6 6 6 6 6 6 6 6 6 6 7 7 8 7 7 8 8 8 7 8 8 8 9 9 10 10 10 10 11 11 12 12 12 12 12 12
11 9 8 8 8 8 7 6 6 7 7 7 7 7 7 7 8 8 8 9 9 9 9 9 8 8 8 9 9 10 10 10 10 11 12 12 12 12 12 13 13 13 13
12 12 11 10 9 9 9 8 8 8 9 9 9 9 9 9 10 10 10 10 10 10 10 10 9 9 10 10 11 11 11 11 11 12 13 14 14 14 14 15 15 15 15
13 14 12 12 12 11 11 10 10 11 11 11 11 11 11 11 12 12 12 12 12 12 12 12 11 11 11 11 12 12 12 13 13 13 14 15 15 16 16 16 17 17 17
16 14 14 14 13 14 13 12 13 13 13 13 13 13 13 13 13 13 13 13 14 14 14 14 13 13 14 13 13 14 14 14 15 15 16 17 18 18 18 18 19 19 20
18 17 16 16 15 15 15 15 15 14 15 15 15 15 15 15 15 15 15 15 16 16 16 16 16 16 16 16 16 16 16 16 17 18 18 19 19 20 20 21 21 21 21
21 20 19 18 18 17 17 17 17 17 17 17 17 17 18 18 18 18 18 17 18 18 18 18 18 18 18 18 18 18 18 19 19 20 20 20 21 22 22 23 23 23 23
22 22 22 21 21 19 19 19 19 19 19 19 19 19 20 20 20 20 19 19 19 19 19 19 20 20 20 20 20 21 21 21 22 22 22 23 23 23 24 24 24 24 25
23 23 24 23 22 22 21 21 21 21 21 21 21 21 21 22 22 21 22 21 21 21 21 22 22 22 22 22 22 23 23 24 24 24 24 25 25 25 25 25 25 25 25
24 24 24 24 24 23 23 24 24 23 23 23 23 23 23 23 23 23 23 24 24 25 24 24 24 24 23 24 24 25 26 26 26 26 26 26 26 26 26 26 26 26 26
26 26 25 25 24 25 25 25 24 24 24 23 23 23 23 24 24 25 25 26 26 26 25 25 25 26 26 26 27 28 28 29 28 28 28 27 27 27 28 28 28 28 28
27 27 26 25 24 25 25 24 25 25 25 25 24 24 25 25 25 25 26 26 27 27 27 27 27 28 28 28 29 30 30 30 30 29 28 28 29 29 30 29 29 29 30
29 29 27 26 25 25 25 26 27 27 28 27 27 27 27 27 27 27 27 28 29 28 28 28 29 29 29 30 31 31 31 31 31 30 30 30 30 31 31 31 31 31 32
30 29 29 28 27 27 28 28 28 28 29 29 30 29 28 29 29 29 30 30 30 30 30 30 30 31 31 31 31 32 32 32 32 31 32 32 32 32 32 32 32 33 34
31 31 31 30 29 30 30 30 29 29 30 30 30 30 30 31 31 31 30 30 30 30 31 32 32 32 32 32 32 32 33 33 33 33 33 33 33 33 33 33 34 35 36
32 32 32 31 30 30 30 30 30 31 31 31 31 32 32 33 32 31 31 31 31 32 32 33 33 33 33 33 33 33 33 34 34 35 35 35 35 35 35 35 35 36 37
32 32 32 32 31 31 31 31 31 31 31 32 32 32 33 33 32 32 32 33 32 32 33 33 33 34 33 33 33 34 34 35 35 35 35 35 35 35 35 36 36 37 37
32 31 31 31 31 30 30 30 31 31 31 32 32 32 32 32 33 34 33 33 33 32 33 33 33 33 33 33 33 34 35 35 35 35 35 35 36 36 36 37 38 38 38
29 29 30 30 30 30 29 30 30 31 30 31 32 32 33 33 33 34 34 34 34 34 33 33 33 33 33 34 34 35 36 36 36 36 35 35 36 37 37 37 37 38 38
Wind_Direction
16 19 20 21 21 22 22 24 28 30 35 37 39 53 66 80 86 80 82 87 86 81 74 73 68 54 299 269 246 252 248 254 251 256 248 239 246 253 259 264 273 276 273
8 14 16 17 18 20 23 27 32 32 35 36 34 38 41 67 74 82 84 82 81 72 41 18 355 329 314 295 282 284 280 279 281 285 286 274 266 265 261 269 274 277 276
359 4 11 15 16 18 20 24 26 29 30 29 29 33 40 51 71 77 69 51 37 13 329 318 311 312 313 304 301 303 298 294 290 291 298 296 283 273 276 284 282 277 282
350 355 3 9 11 14 17 18 21 24 28 33 33 33 35 37 45 40 21 359 333 329 328 323 313 308 312 305 306 306 302 302 297 297 299 295 294 284 283 288 286 282 284
340 345 350 358 2 7 11 14 17 20 22 28 26 23 21 19 20 17 5 342 327 328 328 322 310 305 303 297 298 301 298 300 298 295 296 296 294 291 286 287 286 283 286
326 332 336 347 353 358 2 6 8 7 10 9 7 5 5 4 3 355 348 342 336 331 323 318 310 302 299 296 294 298 295 293 291 291 297 298 298 297 293 290 290 288 288
311 319 322 326 336 340 346 347 350 348 349 348 347 348 348 350 349 346 340 338 335 331 322 314 310 305 303 300 297 294 292 292 294 295 297 300 299 295 294 291 289 288 289
299 304 310 311 317 320 325 329 330 332 334 334 329 331 331 331 330 330 328 330 327 324 324 317 309 307 303 298 294 294 296 298 296 295 295 297 298 297 294 294 293 291 288
290 293 297 302 308 311 312 312 314 318 322 323 319 315 314 315 315 313 314 316 317 317 315 313 310 306 303 302 300 295 293 293 292 291 292 293 293 293 292 292 290 290 289
282 280 281 290 296 300 300 302 302 304 310 312 311 306 302 301 303 303 305 309 308 308 307 306 304 303 300 299 298 295 295 294 292 291 291 290 289 289 290 288 289 289 291
273 275 275 279 283 289 293 294 294 296 297 300 301 300 298 297 298 299 301 303 303 302 301 303 304 302 298 297 296 294 298 299 298 296 294 293 292 292 292 292 291 292 293
274 273 277 277 280 286 288 288 287 289 290 293 295 294 292 293 295 294 295 297 300 299 299 299 299 298 297 298 298 296 297 296 295 295 294 290 290 289 290 293 294 293 292
273 271 272 274 277 280 282 283 283 283 285 287 289 290 289 289 289 289 289 290 294 295 295 296 294 293 293 294 297 297 297 295 294 294 293 290 288 289 290 291 290 291 290
269 270 271 272 275 277 277 280 281 281 282 283 285 288 288 287 286 287 285 286 289 290 290 291 290 290 289 292 294 294 295 296 296 296 296 293 291 290 289 288 289 290 291
268 268 270 271 274 275 275 277 280 281 282 282 284 285 285 284 283 284 286 288 288 287 286 288 289 288 288 290 292 291 292 292 294 294 295 294 293 291 290 290 289 289 290
270 271 271 272 273 274 274 274 275 278 280 281 281 282 282 281 280 282 283 284 285 285 285 286 288 289 289 291 291 291 291 291 291 290 291 291 291 291 290 290 289 288 288
270 270 269 269 270 271 272 273 274 276 277 280 282 281 279 280 280 282 282 281 282 284 284 284 285 287 289 290 289 289 290 290 290 289 288 289 289 287 288 288 288 288 289
267 269 269 269 270 271 271 272 272 273 275 278 280 279 279 279 279 280 282 282 281 282 284 285 286 287 288 288 287 288 289 289 288 289 288 287 288 288 287 287 287 288 289
266 269 271 271 271 271 272 272 272 272 274 276 277 277 277 278 280 281 281 281 280 280 282 284 286 286 286 287 287 286 287 289 290 290 291 290 287 287 286 286 287 287 288
266 267 269 270 271 271 271 271 272 273 273 276 276 276 276 278 279 280 280 280 280 280 280 282 284 285 285 285 286 287 288 289 289 289 289 289 288 287 284 283 285 286 287
264 266 268 270 273 272 271 270 271 272 274 275 275 275 275 276 277 279 279 279 280 279 280 281 283 284 285 285 286 288 289 289 289 289 289 288 287 287 285 284 284 286 286
265 266 267 270 273 274 273 273 272 274 274 274 274 274 275 275 276 277 278 279 278 278 280 281 282 283 285 285 286 288 289 289 290 290 289 289 287 286 286 285 285 286 287
267 268 268 270 272 273 274 273 273 274 274 274 274 274 274 274 275 276 277 277 278 279 281 281 281 283 284 285 286 287 289 290 290 289 288 288 287 287 287 287 287 287 287
269 268 269 270 271 272 272 273 273 273 274 274 274 273 272 272 274 277 277 277 277 279 281 282 283 283 284 285 287 289 289 290 290 289 287 287 287 287 287 286 286 286 286
268 266 267 270 271 273 272 272 274 276 277 277 276 274 273 274 277 278 277 276 277 279 279 280 281 282 284 287 287 288 290 290 290 289 287 287 286 287 287 287 286 286 287
267 265 266 268 270 271 273 274 274 276 277 277 278 277 276 276 278 279 279 278 279 281 281 279 281 283 285 286 287 287 289 289 289 287 286 287 287 287 288 288 287 286 285
Height
5893 5892 5890 5889 5888 5887 5886 5885 5885 5884 5884 5884 5884 5884 5884 5884 5885 5885 5885 5885 5886 5886 5887 5887 5888 5888 5888 5889 5889 5890 5890 5890 5890 5891 5891 5891 5892 5892 5893 5893 5893 5894 5894
5895 5893 5892 5891 5889 5888 5887 5886 5886 5886 5885 5885 5885 5886 5885 5886 5886 5886 5887 5887 5887 5888 5888 5888 5889 5889 5889 5889 5890 5890 5890 5890 5890 5891 5891 5890 5891 5891 5891 5892 5892 5892 5892
5896 5894 5893 5892 5891 5889 5889 5888 5888 5887 5887 5887 5887 5887 5887 5887 5887 5887 5888 5888 5888 5889 5889 5889 5889 5889 5889 5889 5890 5890 5890 5890 5890 5890 5890 5890 5890 5890 5891 5890 5890 5891 5891
5896 5895 5894 5893 5892 5891 5890 5889 5889 5889 5889 5888 5888 5888 5888 5888 5888 5888 5888 5889 5889 5889 5889 5889 5889 5889 5889 5889 5889 5890 5889 5889 5889 5889 5889 5890 5889 5889 5889 5889 5889 5889 5889
5896 5895 5894 5894 5893 5892 5891 5890 5890 5890 5890 5890 5890 5890 5889 5889 5889 5889 5889 5889 5889 5889 5889 5889 5889 5889 5889 5889 5889 5889 5889 5889 5888 5888 5888 5888 5888 5888 5888 5888 5888 5888 5887
5897 5896 5895 5894 5894 5893 5892 5892 5891 5891 5891 5891 5891 5891 5890 5890 5890 5889 5889 5889 5889 5889 5889 5888 5888 5888 5888 5888 5888 5888 5888 5888 5887 5887 5887 5887 5887 5886 5886 5886 5885 5885 5885
5896 5895 5895 5894 5894 5893 5893 5893 5892 5892 5892 5891 5891 5891 5891 5890 5890 5890 5889 5889 5889 5889 5888 5888 5887 5887 5887 5887 5887 5886 5886 5886 5886 5885 5885 5885 5885 5884 5884 5884 5883 5883 5883
5895 5894 5894 5894 5893 5893 5893 5893 5892 5892 5892 5892 5891 5891 5891 5890 5890 5890 5890 5889 5889 5888 5888 5887 5886 5886 5885 5885 5885 5885 5884 5884 5884 5884 5883 5883 5883 5882 5882 5881 5881 5880 5880
5894 5893 5893 5893 5892 5892 5892 5892 5892 5892 5892 5891 5891 5891 5890 5890 5890 5889 5889 5888 5888 5887 5886 5886 5885 5884 5884 5884 5883 5883 5883 5882 5882 5881 5881 5881 5880 5880 5879 5878 5878 5878 5877
5892 5891 5891 5891 5891 5891 5891 5891 5891 5891 5891 5890 5890 5889 5889 5889 5888 5888 5888 5887 5886 5886 5885 5884 5883 5883 5882 5882 5881 5881 5880 5879 5879 5878 5878 5877 5877 5876 5876 5875 5874 5874 5873
5888 5889 5888 5889 5889 5889 5889 5889 5889 5889 5889 5889 5888 5888 5887 5887 5886 5886 5886 5885 5884 5884 5883 5882 5881 5880 5880 5879 5879 5878 5877 5877 5876 5875 5875 5874 5873 5872 5871 5871 5870 5870 5869
5886 5885 5885 5886 5886 5886 5885 5886 5887 5886 5886 5886 5886 5885 5885 5884 5884 5884 5883 5883 5882 5881 5880 5879 5879 5878 5877 5876 5876 5875 5874 5873 5873 5872 5871 5870 5869 5868 5867 5866 5866 5865 5864
5882 5882 5883 5883 5883 5883 5883 5883 5883 5883 5883 5883 5883 5882 5882 5882 5881 5881 5880 5880 5879 5878 5877 5876 5876 5875 5874 5873 5872 5871 5870 5870 5869 5867 5866 5865 5864 5863 5862 5861 5860 5859 5858
5878 5879 5879 5880 5880 5880 5880 5880 5879 5879 5879 5879 5879 5879 5878 5878 5877 5877 5876 5875 5875 5874 5873 5873 5872 5871 5870 5869 5868 5867 5866 5865 5864 5863 5861 5860 5859 5858 5857 5856 5855 5854 5852
5873 5874 5875 5875 5875 5876 5876 5875 5875 5875 5875 5875 5875 5874 5874 5873 5873 5872 5872 5871 5870 5869 5869 5868 5867 5867 5866 5865 5864 5863 5862 5861 5859 5858 5856 5855 5853 5852 5851 5850 5848 5847 5846
5868 5869 5870 5870 5870 5871 5871 5871 5871 5871 5870 5870 5870 5869 5868 5868 5868 5867 5867 5866 5865 5864 5864 5863 5862 5861 5860 5860 5859 5857 5856 5855 5853 5852 5850 5849 5847 5846 5844 5843 5841 5840 5839
5863 5863 5864 5864 5865 5865 5865 5866 5865 5865 5864 5864 5864 5863 5863 5862 5861 5861 5861 5860 5860 5859 5858 5858 5857 5856 5855 5854 5852 5851 5849 5848 5847 5845 5843 5842 5840 5839 5837 5836 5834 5833 5831
5857 5857 5857 5858 5858 5858 5859 5859 5859 5859 5859 5858 5858 5857 5857 5856 5856 5855 5854 5854 5853 5853 5852 5851 5851 5850 5848 5847 5845 5844 5842 5841 5839 5837 5836 5834 5833 5831 5830 5828 5827 5825 5824
5849 5850 5850 5851 5851 5852 5852 5852 5852 5852 5852 5852 5852 5851 5850 5850 5849 5849 5848 5847 5847 5846 5845 5844 5843 5842 5841 5839 5838 5836 5835 5833 5832 5830 5828 5826 5824 5823 5821 5820 5818 5817 5816
5842 5843 5843 5844 5844 5844 5844 5844 5845 5845 5845 5845 5844 5844 5843 5843 5842 5842 5841 5840 5839 5838 5837 5836 5835 5834 5833 5831 5830 5828 5827 5825 5823 5821 5819 5817 5815 5814 5812 5811 5810 5808 5807
5834 5834 5835 5836 5836 5837 5837 5837 5837 5837 5837 5837 5836 5836 5836 5835 5835 5834 5833 5832 5830 5829 5829 5828 5827 5825 5824 5822 5821 5819 5817 5816 5814 5812 5810 5808 5806 5804 5802 5801 5800 5798 5796
5825 5826 5827 5827 5828 5828 5828 5828 5829 5828 5828 5828 5828 5827 5827 5826 5826 5825 5824 5823 5822 5821 5819 5818 5817 5816 5814 5813 5811 5810 5808 5806 5804 5802 5800 5799 5797 5795 5793 5791 5789 5788 5786
5817 5818 5818 5819 5819 5819 5819 5820 5820 5820 5819 5819 5818 5818 5817 5817 5817 5816 5814 5813 5812 5811 5810 5809 5808 5806 5805 5803 5802 5800 5798 5796 5794 5793 5791 5789 5787 5785 5783 5781 5779 5777 5775
5808 5809 5809 5810 5811 5811 5811 5811 5811 5810 5810 5810 5809 5808 5808 5807 5807 5805 5804 5803 5802 5801 5800 5799 5798 5797 5795 5794 5792 5791 5789 5787 5785 5783 5781 5779 5776 5774 5772 5771 5768 5766 5764
5800 5800 5801 5801 5802 5802 5802 5802 5802 5801 5801 5800 5799 5799 5798 5798 5797 5796 5794 5793 5792 5790 5789 5789 5788 5787 5786 5784 5782 5781 5779 5777 5775 5772 5770 5768 5766 5764 5762 5760 5757 5755 5753
5791 5791 5793 5793 5794 5794 5794 5794 5793 5793 5792 5792 5791 5790 5789 5788 5788 5787 5785 5783 5783 5781 5780 5778 5778 5777 5776 5774 5772 5770 5769 5766 5764 5761 5759 5757 5755 5753 5751 5748 5746 5744 5741